• In Hungary
  • List of Countries
  • For 7 days
  • Water Temperature
  • Satellite Maps
  • Weather Map
  • News
  • Weather Widgets
  • user-avatar
    Login

    Hourly Weather Canberra

    Today, 27 May, Sunday

    Time Temperature Precipitation Wind Pressure Humidity
    00:00 +7°C° 0 mm 1 mps 717 mmHg 80%
    01:00 +7°C° 0 mm 1 mps 716 mmHg 80%
    02:00 +7°C° 0 mm 1 mps 716 mmHg 79%
    03:00 +7°C° 0 mm 1 mps 716 mmHg 78%
    04:00 +7°C° 0 mm 1 mps 716 mmHg 77%
    05:00 +7°C° 0 mm 1 mps 716 mmHg 77%
    06:00 +7°C° 0 mm 1 mps 716 mmHg 77%
    07:00 +7°C° 0 mm 1 mps 716 mmHg 78%
    08:00 +10°C° 0 mm 1 mps 717 mmHg 68%
    09:00 +13°C° 0 mm 1 mps 717 mmHg 59%
    10:00 +16°C° 0 mm 1 mps 718 mmHg 50%
    11:00 +18°C° 0 mm 1 mps 717 mmHg 47%
    12:00 +20°C° 0 mm 1 mps 717 mmHg 43%
    13:00 +20°C° 0 mm 2 mps 717 mmHg 40%
    14:00 +19°C° 0 mm 2 mps 716 mmHg 44%
    15:00 +20°C° 0 mm 1 mps 716 mmHg 48%
    16:00 +19°C° 0 mm 1 mps 716 mmHg 52%
    17:00 +16°C° 0 mm 1 mps 716 mmHg 60%
    18:00 +14°C° 0 mm 1 mps 716 mmHg 68%
    19:00 +12°C° 0 mm 1 mps 715 mmHg 76%
    20:00 +11°C° 0 mm 1 mps 716 mmHg 78%
    21:00 +11°C° 0 mm 1 mps 716 mmHg 80%
    22:00 +10°C° 0 mm 1 mps 716 mmHg 83%
    23:00 +10°C° 0 mm 1 mps 716 mmHg 83%

    Tomorrow, 28 May, Monday

    Time Temperature Precipitation Wind Pressure Humidity
    00:00 +10°C° 0 mm 1 mps 716 mmHg 84%
    01:00 +9°C° 0 mm 1 mps 715 mmHg 85%
    02:00 +9°C° 0 mm 1 mps 715 mmHg 86%
    03:00 +9°C° 0 mm 1 mps 715 mmHg 87%
    04:00 +9°C° 0 mm 1 mps 715 mmHg 87%
    05:00 +9°C° 0 mm 1 mps 715 mmHg 87%
    06:00 +9°C° 0 mm 1 mps 715 mmHg 87%
    07:00 +9°C° 0 mm 1 mps 715 mmHg 87%
    08:00 +11°C° 0 mm 1 mps 715 mmHg 77%
    09:00 +12°C° 0 mm 0 mps 715 mmHg 67%
    10:00 +14°C° 0 mm 0 mps 716 mmHg 57%
    11:00 +18°C° 0 mm 1 mps 715 mmHg 52%
    12:00 +19°C° 0 mm 1 mps 715 mmHg 47%
    13:00 +19°C° 0 mm 2 mps 714 mmHg 42%
    14:00 +19°C° 0 mm 1 mps 714 mmHg 44%
    15:00 +19°C° 0 mm 1 mps 714 mmHg 47%
    16:00 +18°C° 0 mm 1 mps 714 mmHg 50%
    17:00 +15°C° 0 mm 1 mps 714 mmHg 56%
    18:00 +13°C° 0 mm 1 mps 713 mmHg 63%
    19:00 +11°C° 0 mm 1 mps 713 mmHg 69%
    20:00 +11°C° 0 mm 1 mps 714 mmHg 71%
    21:00 +10°C° 0 mm 1 mps 714 mmHg 73%
    22:00 +10°C° 0 mm 1 mps 714 mmHg 75%
    23:00 +9°C° 0 mm 1 mps 713 mmHg 75%

    Day after tomorrow, 29 May, Tuesday

    Time Temperature Precipitation Wind Pressure Humidity
    00:00 +9°C° 0 mm 1 mps 713 mmHg 76%
    01:00 +8°C° 0 mm 1 mps 713 mmHg 76%
    02:00 +8°C° 0 mm 1 mps 712 mmHg 76%
    03:00 +8°C° 0 mm 1 mps 712 mmHg 75%
    04:00 +7°C° 0 mm 1 mps 712 mmHg 75%
    05:00 +7°C° 0 mm 1 mps 712 mmHg 76%
    06:00 +7°C° 0 mm 1 mps 712 mmHg 77%
    07:00 +7°C° 0 mm 1 mps 712 mmHg 78%
    08:00 +8°C° 0 mm 2 mps 712 mmHg 69%
    09:00 +12°C° 0 mm 2 mps 712 mmHg 60%
    10:00 +14°C° 0 mm 3 mps 713 mmHg 50%
    11:00 +16°C° 0 mm 3 mps 712 mmHg 48%
    12:00 +18°C° 0 mm 4 mps 711 mmHg 46%
    13:00 +19°C° 0 mm 4 mps 711 mmHg 44%
    14:00 +18°C° 0 mm 4 mps 710 mmHg 47%
    15:00 +18°C° 0 mm 3 mps 710 mmHg 51%
    16:00 +18°C° 0 mm 3 mps 710 mmHg 54%
    17:00 +16°C° 0.1 mm 3 mps 710 mmHg 62%
    18:00 +14°C° 0.1 mm 2 mps 710 mmHg 71%
    19:00 +13°C° 0.1 mm 2 mps 709 mmHg 80%
    20:00 +12°C° 0.3 mm 2 mps 710 mmHg 84%
    21:00 +12°C° 0.3 mm 2 mps 710 mmHg 87%
    22:00 +12°C° 0.3 mm 2 mps 710 mmHg 91%
    23:00 +12°C° 0.6 mm 2 mps 710 mmHg 92%

    30 May, Wednesday

    Time Temperature Precipitation Wind Pressure Humidity
    00:00 +10°C° 0.6 mm 3 mps 710 mmHg 93%
    01:00 +10°C° 0.6 mm 3 mps 710 mmHg 94%
    02:00 +9°C° 0.1 mm 3 mps 710 mmHg 93%
    03:00 +8°C° 0.1 mm 3 mps 710 mmHg 92%
    04:00 +7°C° 0.1 mm 3 mps 710 mmHg 91%
    05:00 +6°C° 0 mm 2 mps 710 mmHg 91%
    06:00 +5°C° 0 mm 2 mps 711 mmHg 92%
    07:00 +3°C° 0 mm 2 mps 711 mmHg 92%
    08:00 +5°C° 0 mm 2 mps 712 mmHg 84%
    09:00 +7°C° 0 mm 2 mps 712 mmHg 76%
    10:00 +8°C° 0 mm 2 mps 713 mmHg 67%
    11:00 +9°C° 0 mm 3 mps 713 mmHg 57%
    12:00 +11°C° 0 mm 3 mps 713 mmHg 46%
    13:00 +12°C° 0 mm 4 mps 713 mmHg 36%
    14:00 +12°C° 0 mm 3 mps 713 mmHg 37%
    15:00 +11°C° 0 mm 3 mps 713 mmHg 39%
    16:00 +11°C° 0 mm 3 mps 713 mmHg 40%
    17:00 +9°C° 0 mm 2 mps 713 mmHg 50%
    18:00 +7°C° 0 mm 2 mps 714 mmHg 59%
    19:00 +5°C° 0 mm 2 mps 714 mmHg 69%
    20:00 +5°C° 0 mm 2 mps 714 mmHg 74%
    21:00 +4°C° 0 mm 2 mps 714 mmHg 80%
    22:00 +3°C° 0 mm 2 mps 715 mmHg 86%
    23:00 +3°C° 0 mm 2 mps 715 mmHg 83%

    31 May, Thursday

    Time Temperature Precipitation Wind Pressure Humidity
    00:00 +3°C° 0 mm 2 mps 714 mmHg 79%
    01:00 +3°C° 0 mm 3 mps 714 mmHg 76%
    02:00 +3°C° 0 mm 3 mps 714 mmHg 77%
    03:00 +3°C° 0 mm 3 mps 714 mmHg 78%
    04:00 +3°C° 0 mm 3 mps 714 mmHg 79%
    05:00 +3°C° 0 mm 3 mps 714 mmHg 83%
    06:00 +3°C° 0 mm 2 mps 714 mmHg 87%
    07:00 +3°C° 0 mm 2 mps 714 mmHg 91%
    08:00 +4°C° 0 mm 3 mps 715 mmHg 79%
    09:00 +7°C° 0 mm 3 mps 715 mmHg 67%
    10:00 +8°C° 0 mm 4 mps 716 mmHg 55%
    11:00 +10°C° 0 mm 4 mps 715 mmHg 48%
    12:00 +12°C° 0 mm 4 mps 715 mmHg 41%
    13:00 +13°C° 0 mm 4 mps 715 mmHg 34%
    14:00 +12°C° 0 mm 4 mps 715 mmHg 35%
    15:00 +12°C° 0 mm 3 mps 715 mmHg 37%
    16:00 +11°C° 0 mm 3 mps 715 mmHg 38%
    17:00 +9°C° 0 mm 3 mps 715 mmHg 46%
    18:00 +7°C° 0 mm 2 mps 716 mmHg 54%
    19:00 +5°C° 0 mm 2 mps 716 mmHg 61%
    20:00 +4°C° 0 mm 2 mps 716 mmHg 65%
    21:00 +4°C° 0 mm 2 mps 716 mmHg 69%
    22:00 +3°C° 0 mm 2 mps 716 mmHg 74%
    23:00 +3°C° 0 mm 2 mps 716 mmHg 74%

    1 June, Friday

    Time Temperature Precipitation Wind Pressure Humidity
    00:00 +4°C° 0 mm 2 mps 716 mmHg 75%
    01:00 +4°C° 0 mm 2 mps 716 mmHg 76%
    02:00 +4°C° 0 mm 2 mps 716 mmHg 77%
    03:00 +4°C° 0 mm 2 mps 716 mmHg 78%
    04:00 +4°C° 0 mm 2 mps 716 mmHg 79%
    05:00 +3°C° 0 mm 2 mps 716 mmHg 80%
    06:00 +3°C° 0 mm 2 mps 716 mmHg 81%
    07:00 +3°C° 0 mm 2 mps 716 mmHg 82%
    08:00 +4°C° 0 mm 3 mps 717 mmHg 73%
    09:00 +6°C° 0 mm 4 mps 717 mmHg 65%
    10:00 +8°C° 0 mm 5 mps 717 mmHg 56%
    11:00 +8°C° 0 mm 5 mps 717 mmHg 56%
    12:00 +9°C° 0 mm 5 mps 716 mmHg 55%
    13:00 +9°C° 0 mm 5 mps 716 mmHg 55%
    14:00 +10°C° 0 mm 4 mps 716 mmHg 56%
    15:00 +10°C° 0 mm 4 mps 716 mmHg 56%
    16:00 +10°C° 0 mm 4 mps 716 mmHg 57%
    17:00 +7°C° 0 mm 4 mps 716 mmHg 63%
    18:00 +7°C° 0 mm 3 mps 716 mmHg 69%
    19:00 +5°C° 0 mm 3 mps 716 mmHg 75%
    20:00 +5°C° 0 mm 3 mps 716 mmHg 76%
    21:00 +5°C° 0 mm 3 mps 716 mmHg 78%
    22:00 +5°C° 0 mm 3 mps 716 mmHg 79%
    23:00 +5°C° 0 mm 3 mps 716 mmHg 79%
    Show more